Year,Month,Day,Hour,Minute,Value (Times are PST for temperature in C)
2016,06,20,00,00,12.10
2016,06,20,00,01,12.10
2016,06,20,00,02,12.10
2016,06,20,00,03,12.10
2016,06,20,00,04,12.10
2016,06,20,00,05,12.10
2016,06,20,00,06,12.10
2016,06,20,00,07,12.00
2016,06,20,00,08,12.00
2016,06,20,00,09,12.00
2016,06,20,00,10,12.00
2016,06,20,00,11,11.90
2016,06,20,00,12,11.90
2016,06,20,00,13,11.90
2016,06,20,00,14,11.90
2016,06,20,00,15,11.90
2016,06,20,00,16,11.90
2016,06,20,00,17,11.90
2016,06,20,00,18,11.90
2016,06,20,00,19,11.90
2016,06,20,00,20,11.90
2016,06,20,00,21,11.90
2016,06,20,00,22,11.90
2016,06,20,00,23,11.80
2016,06,20,00,24,11.80
2016,06,20,00,25,11.80
2016,06,20,00,26,11.80
2016,06,20,00,27,11.80
2016,06,20,00,28,11.80
2016,06,20,00,29,11.80
2016,06,20,00,30,11.80
2016,06,20,00,31,11.80
2016,06,20,00,32,11.70
2016,06,20,00,33,11.70
2016,06,20,00,34,11.70
2016,06,20,00,35,11.70
2016,06,20,00,36,11.70
2016,06,20,00,37,11.70
2016,06,20,00,38,11.70
2016,06,20,00,39,11.70
2016,06,20,00,40,11.70
2016,06,20,00,41,11.70
2016,06,20,00,42,11.70
2016,06,20,00,43,11.70
2016,06,20,00,44,11.70
2016,06,20,00,45,11.60
2016,06,20,00,46,11.60
2016,06,20,00,47,11.60
2016,06,20,00,48,11.60
2016,06,20,00,49,11.60
2016,06,20,00,50,11.60
2016,06,20,00,51,11.60
2016,06,20,00,52,11.60
2016,06,20,00,53,11.50
2016,06,20,00,54,11.50
2016,06,20,00,55,11.50
2016,06,20,00,56,11.50
2016,06,20,00,57,11.50
2016,06,20,00,58,11.40
2016,06,20,00,59,11.40
2016,06,20,01,00,11.40
2016,06,20,01,01,11.40
2016,06,20,01,02,11.40
2016,06,20,01,03,11.40
2016,06,20,01,04,11.40
2016,06,20,01,05,11.30
2016,06,20,01,06,11.30
2016,06,20,01,07,11.30
2016,06,20,01,08,11.30
2016,06,20,01,09,11.30
2016,06,20,01,10,11.30
2016,06,20,01,11,11.30
2016,06,20,01,12,11.30
2016,06,20,01,13,11.30
2016,06,20,01,14,11.30
2016,06,20,01,15,11.30
2016,06,20,01,16,11.30
2016,06,20,01,17,11.30
2016,06,20,01,18,11.30
2016,06,20,01,19,11.30
2016,06,20,01,20,11.30
2016,06,20,01,21,11.20
2016,06,20,01,22,11.20
2016,06,20,01,23,11.20
2016,06,20,01,24,11.20
2016,06,20,01,25,11.20
2016,06,20,01,26,11.20
2016,06,20,01,27,11.20
2016,06,20,01,28,11.20
2016,06,20,01,29,11.20
2016,06,20,01,30,11.20
2016,06,20,01,31,11.20
2016,06,20,01,32,11.20
2016,06,20,01,33,11.20
2016,06,20,01,34,11.20
2016,06,20,01,35,11.20
2016,06,20,01,36,11.10
2016,06,20,01,37,11.10
2016,06,20,01,38,11.10
2016,06,20,01,39,11.10
2016,06,20,01,40,11.10
2016,06,20,01,41,11.10
2016,06,20,01,42,11.10
2016,06,20,01,43,11.10
2016,06,20,01,44,11.10
2016,06,20,01,45,11.10
2016,06,20,01,46,11.10
2016,06,20,01,47,11.10
2016,06,20,01,48,11.10
2016,06,20,01,49,11.10
2016,06,20,01,50,11.10
2016,06,20,01,51,11.10
2016,06,20,01,52,11.10
2016,06,20,01,53,11.10
2016,06,20,01,54,11.10
2016,06,20,01,55,11.00
2016,06,20,01,56,11.00
2016,06,20,01,57,11.00
2016,06,20,01,58,11.00
2016,06,20,01,59,11.00
2016,06,20,02,00,11.00
2016,06,20,02,01,10.90
2016,06,20,02,02,10.90
2016,06,20,02,03,10.90
2016,06,20,02,04,10.90
2016,06,20,02,05,10.90
2016,06,20,02,06,10.90
2016,06,20,02,07,10.90
2016,06,20,02,08,10.80
2016,06,20,02,09,10.80
2016,06,20,02,10,10.80
2016,06,20,02,11,10.80
2016,06,20,02,12,10.80
2016,06,20,02,13,10.80
2016,06,20,02,14,10.80
2016,06,20,02,15,10.80
2016,06,20,02,16,10.80
2016,06,20,02,17,10.80
2016,06,20,02,18,10.80
2016,06,20,02,19,10.80
2016,06,20,02,20,10.80
2016,06,20,02,21,10.80
2016,06,20,02,22,10.80
2016,06,20,02,23,10.80
2016,06,20,02,24,10.80
2016,06,20,02,25,10.80
2016,06,20,02,26,10.80
2016,06,20,02,27,10.80
2016,06,20,02,28,10.80
2016,06,20,02,29,10.80
2016,06,20,02,30,10.80
2016,06,20,02,31,10.70
2016,06,20,02,32,10.70
2016,06,20,02,33,10.70
2016,06,20,02,34,10.70
2016,06,20,02,35,10.70
2016,06,20,02,36,10.70
2016,06,20,02,37,10.70
2016,06,20,02,38,10.70
2016,06,20,02,39,10.70
2016,06,20,02,40,10.70
2016,06,20,02,41,10.70
2016,06,20,02,42,10.70
2016,06,20,02,43,10.70
2016,06,20,02,44,10.70
2016,06,20,02,45,10.70
2016,06,20,02,46,10.70
2016,06,20,02,47,10.70
2016,06,20,02,48,10.70
2016,06,20,02,49,10.70
2016,06,20,02,50,10.70
2016,06,20,02,51,10.70
2016,06,20,02,52,10.70
2016,06,20,02,53,10.70
2016,06,20,02,54,10.70
2016,06,20,02,55,10.70
2016,06,20,02,56,10.70
2016,06,20,02,57,10.70
2016,06,20,02,58,10.70
2016,06,20,02,59,10.70
2016,06,20,03,00,10.70
2016,06,20,03,01,10.70
2016,06,20,03,02,10.70
2016,06,20,03,03,10.70
2016,06,20,03,04,10.70
2016,06,20,03,05,10.70
2016,06,20,03,06,10.70
2016,06,20,03,07,10.70
2016,06,20,03,08,10.70
2016,06,20,03,09,10.60
2016,06,20,03,10,10.60
2016,06,20,03,11,10.60
2016,06,20,03,12,10.60
2016,06,20,03,13,10.60
2016,06,20,03,14,10.60
2016,06,20,03,15,10.60
2016,06,20,03,16,10.60
2016,06,20,03,17,10.60
2016,06,20,03,18,10.50
2016,06,20,03,19,10.50
2016,06,20,03,20,10.50
2016,06,20,03,21,10.50
2016,06,20,03,22,10.50
2016,06,20,03,23,10.50
2016,06,20,03,24,10.50
2016,06,20,03,25,10.50
2016,06,20,03,26,10.50
2016,06,20,03,27,10.50
2016,06,20,03,28,10.50
2016,06,20,03,29,10.50
2016,06,20,03,30,10.40
2016,06,20,03,31,10.40
2016,06,20,03,32,10.40
2016,06,20,03,33,10.40
2016,06,20,03,34,10.40
2016,06,20,03,35,10.40
2016,06,20,03,36,10.40
2016,06,20,03,37,10.30
2016,06,20,03,38,10.30
2016,06,20,03,39,10.30
2016,06,20,03,40,10.30
2016,06,20,03,41,10.30
2016,06,20,03,42,10.30
2016,06,20,03,43,10.30
2016,06,20,03,44,10.20
2016,06,20,03,45,10.20
2016,06,20,03,46,10.20
2016,06,20,03,47,10.20
2016,06,20,03,48,10.20
2016,06,20,03,49,10.30
2016,06,20,03,50,10.30
2016,06,20,03,51,10.20
2016,06,20,03,52,10.20
2016,06,20,03,53,10.20
2016,06,20,03,54,10.20
2016,06,20,03,55,10.20
2016,06,20,03,56,10.20
2016,06,20,03,57,10.20
2016,06,20,03,58,10.20
2016,06,20,03,59,10.20
2016,06,20,04,00,10.20
2016,06,20,04,01,10.10
2016,06,20,04,02,10.10
2016,06,20,04,03,10.10
2016,06,20,04,04,10.10
2016,06,20,04,05,10.10
2016,06,20,04,06,10.10
2016,06,20,04,07,10.10
2016,06,20,04,08,10.00
2016,06,20,04,09,10.00
2016,06,20,04,10,10.00
2016,06,20,04,11,10.00
2016,06,20,04,12,10.00
2016,06,20,04,13,10.00
2016,06,20,04,14,9.90
2016,06,20,04,15,9.90
2016,06,20,04,16,9.90
2016,06,20,04,17,9.90
2016,06,20,04,18,9.90
2016,06,20,04,19,9.90
2016,06,20,04,20,9.80
2016,06,20,04,21,9.80
2016,06,20,04,22,9.80
2016,06,20,04,23,9.80
2016,06,20,04,24,9.80
2016,06,20,04,25,9.80
2016,06,20,04,26,9.80
2016,06,20,04,27,9.80
2016,06,20,04,28,9.80
2016,06,20,04,29,9.80
2016,06,20,04,30,9.80
2016,06,20,04,31,9.80
2016,06,20,04,32,9.80
2016,06,20,04,33,9.80
2016,06,20,04,34,9.70
2016,06,20,04,35,9.70
2016,06,20,04,36,9.70
2016,06,20,04,37,9.70
2016,06,20,04,38,9.70
2016,06,20,04,39,9.70
2016,06,20,04,40,9.70
2016,06,20,04,41,9.70
2016,06,20,04,42,9.70
2016,06,20,04,43,9.70
2016,06,20,04,44,9.60
2016,06,20,04,45,9.60
2016,06,20,04,46,9.60
2016,06,20,04,47,9.60
2016,06,20,04,48,9.60
2016,06,20,04,49,9.60
2016,06,20,04,50,9.60
2016,06,20,04,51,9.60
2016,06,20,04,52,9.60
2016,06,20,04,53,9.60
2016,06,20,04,54,9.60
2016,06,20,04,55,9.60
2016,06,20,04,56,9.60
2016,06,20,04,57,9.60
2016,06,20,04,58,9.60
2016,06,20,04,59,9.60
2016,06,20,05,00,9.60
2016,06,20,05,01,9.60
2016,06,20,05,02,9.60
2016,06,20,05,03,9.60
2016,06,20,05,04,9.60
2016,06,20,05,05,9.60
2016,06,20,05,06,9.50
2016,06,20,05,07,9.50
2016,06,20,05,08,9.50
2016,06,20,05,09,9.50
2016,06,20,05,10,9.50
2016,06,20,05,11,9.50
2016,06,20,05,12,9.50
2016,06,20,05,13,9.50
2016,06,20,05,14,9.50
2016,06,20,05,15,9.50
2016,06,20,05,16,9.50
2016,06,20,05,17,9.50
2016,06,20,05,18,9.50
2016,06,20,05,19,9.50
2016,06,20,05,20,9.40
2016,06,20,05,21,9.40
2016,06,20,05,22,9.40
2016,06,20,05,23,9.40
2016,06,20,05,24,9.40
2016,06,20,05,25,9.40
2016,06,20,05,26,9.40
2016,06,20,05,27,9.40
2016,06,20,05,28,9.40
2016,06,20,05,29,9.40
2016,06,20,05,30,9.40
2016,06,20,05,31,9.40
2016,06,20,05,32,9.30
2016,06,20,05,33,9.30
2016,06,20,05,34,9.30
2016,06,20,05,35,9.30
2016,06,20,05,36,9.30
2016,06,20,05,37,9.30
2016,06,20,05,38,9.30
2016,06,20,05,39,9.30
2016,06,20,05,40,9.30
2016,06,20,05,41,9.30
2016,06,20,05,42,9.30
2016,06,20,05,43,9.30
2016,06,20,05,44,9.30
2016,06,20,05,45,9.30
2016,06,20,05,46,9.30
2016,06,20,05,47,9.30
2016,06,20,05,48,9.30
2016,06,20,05,49,9.30
2016,06,20,05,50,9.30
2016,06,20,05,51,9.30
2016,06,20,05,52,9.30
2016,06,20,05,53,9.30
2016,06,20,05,54,9.30
2016,06,20,05,55,9.30
2016,06,20,05,56,9.30
2016,06,20,05,57,9.30
2016,06,20,05,58,9.30
2016,06,20,05,59,9.30
2016,06,20,06,00,9.30
2016,06,20,06,01,9.30
2016,06,20,06,02,9.30
2016,06,20,06,03,9.30
2016,06,20,06,04,9.30
2016,06,20,06,05,9.30
2016,06,20,06,06,9.30
2016,06,20,06,07,9.30
2016,06,20,06,08,9.30
2016,06,20,06,09,9.30
2016,06,20,06,10,9.30
2016,06,20,06,11,9.30
2016,06,20,06,12,9.30
2016,06,20,06,13,9.30
2016,06,20,06,14,9.30
2016,06,20,06,15,9.30
2016,06,20,06,16,9.30
2016,06,20,06,17,9.30
2016,06,20,06,18,9.30
2016,06,20,06,19,9.30
2016,06,20,06,20,9.30
2016,06,20,06,21,9.30
2016,06,20,06,22,9.30
2016,06,20,06,23,9.30
2016,06,20,06,24,9.30
2016,06,20,06,25,9.30
2016,06,20,06,26,9.30
2016,06,20,06,27,9.30
2016,06,20,06,28,9.30
2016,06,20,06,29,9.30
2016,06,20,06,30,9.30
2016,06,20,06,31,9.30
2016,06,20,06,32,9.30
2016,06,20,06,33,9.30
2016,06,20,06,34,9.30
2016,06,20,06,35,9.30
2016,06,20,06,36,9.30
2016,06,20,06,37,9.30
2016,06,20,06,38,9.30
2016,06,20,06,39,9.30
2016,06,20,06,40,9.30
2016,06,20,06,41,9.30
2016,06,20,06,42,9.30
2016,06,20,06,43,9.30
2016,06,20,06,44,9.30
2016,06,20,06,45,9.30
2016,06,20,06,46,9.30
2016,06,20,06,47,9.30
2016,06,20,06,48,9.30
2016,06,20,06,49,9.30
2016,06,20,06,50,9.30
2016,06,20,06,51,9.30
2016,06,20,06,52,9.30
2016,06,20,06,53,9.30
2016,06,20,06,54,9.30
2016,06,20,06,55,9.30
2016,06,20,06,56,9.30
2016,06,20,06,57,9.30
2016,06,20,06,58,9.30
2016,06,20,06,59,9.30
2016,06,20,07,00,9.40
2016,06,20,07,01,9.40
2016,06,20,07,02,9.40
2016,06,20,07,03,9.40
2016,06,20,07,04,9.40
2016,06,20,07,05,9.40
2016,06,20,07,06,9.40
2016,06,20,07,07,9.40
2016,06,20,07,08,9.40
2016,06,20,07,09,9.40
2016,06,20,07,10,9.40
2016,06,20,07,11,9.40
2016,06,20,07,12,9.40
2016,06,20,07,13,9.40
2016,06,20,07,14,9.50
2016,06,20,07,15,9.50
2016,06,20,07,16,9.50
2016,06,20,07,17,9.50
2016,06,20,07,18,9.50
2016,06,20,07,19,9.50
2016,06,20,07,20,9.50
2016,06,20,07,21,9.50
2016,06,20,07,22,9.50
2016,06,20,07,23,9.60
2016,06,20,07,24,9.60
2016,06,20,07,25,9.60
2016,06,20,07,26,9.60
2016,06,20,07,27,9.60
2016,06,20,07,28,9.60
2016,06,20,07,29,9.60
2016,06,20,07,30,9.60
2016,06,20,07,31,9.60
2016,06,20,07,32,9.60
2016,06,20,07,33,9.60
2016,06,20,07,34,9.60
2016,06,20,07,35,9.60
2016,06,20,07,36,9.60
2016,06,20,07,37,9.70
2016,06,20,07,38,9.70
2016,06,20,07,39,9.70
2016,06,20,07,40,9.70
2016,06,20,07,41,9.70
2016,06,20,07,42,9.70
2016,06,20,07,43,9.70
2016,06,20,07,44,9.80
2016,06,20,07,45,9.80
2016,06,20,07,46,9.80
2016,06,20,07,47,9.80
2016,06,20,07,48,9.80
2016,06,20,07,49,9.80
2016,06,20,07,50,9.80
2016,06,20,07,51,9.80
2016,06,20,07,52,9.80
2016,06,20,07,53,9.90
2016,06,20,07,54,9.90
2016,06,20,07,55,9.90
2016,06,20,07,56,9.90
2016,06,20,07,57,9.90
2016,06,20,07,58,9.90
2016,06,20,07,59,10.00
2016,06,20,08,00,10.00
2016,06,20,08,01,10.00
2016,06,20,08,02,10.10
2016,06,20,08,03,10.10
2016,06,20,08,04,10.10
2016,06,20,08,05,10.10
2016,06,20,08,06,10.10
2016,06,20,08,07,10.20
2016,06,20,08,08,10.20
2016,06,20,08,09,10.20
2016,06,20,08,10,10.20
2016,06,20,08,11,10.30
2016,06,20,08,12,10.30
2016,06,20,08,13,10.30
2016,06,20,08,14,10.40
2016,06,20,08,15,10.40
2016,06,20,08,16,10.40
2016,06,20,08,17,10.50
2016,06,20,08,18,10.60
2016,06,20,08,19,10.60
2016,06,20,08,20,10.60
2016,06,20,08,21,10.70
2016,06,20,08,22,10.70
2016,06,20,08,23,10.70
2016,06,20,08,24,10.80
2016,06,20,08,25,10.80
2016,06,20,08,26,10.80
2016,06,20,08,27,10.90
2016,06,20,08,28,10.90
2016,06,20,08,29,11.00
2016,06,20,08,30,11.10
2016,06,20,08,31,11.10
2016,06,20,08,32,11.20
2016,06,20,08,33,11.20
2016,06,20,08,34,11.30
2016,06,20,08,35,11.30
2016,06,20,08,36,11.40
2016,06,20,08,37,11.40
2016,06,20,08,38,11.50
2016,06,20,08,39,11.60
2016,06,20,08,40,11.60
2016,06,20,08,41,11.70
2016,06,20,08,42,11.80
2016,06,20,08,43,11.80
2016,06,20,08,44,11.90
2016,06,20,08,45,11.90
2016,06,20,08,46,12.00
2016,06,20,08,47,12.10
2016,06,20,08,48,12.10
2016,06,20,08,49,12.20
2016,06,20,08,50,12.20
2016,06,20,08,51,12.30
2016,06,20,08,52,12.40
2016,06,20,08,53,12.40
2016,06,20,08,54,12.50
2016,06,20,08,55,12.60
2016,06,20,08,56,12.80
2016,06,20,08,57,12.90
2016,06,20,08,58,13.00
2016,06,20,08,59,13.10
2016,06,20,09,00,13.20
2016,06,20,09,01,13.30
2016,06,20,09,02,13.40
2016,06,20,09,03,13.50
2016,06,20,09,04,13.60
2016,06,20,09,05,13.60
2016,06,20,09,06,13.70
2016,06,20,09,07,13.80
2016,06,20,09,08,13.90
2016,06,20,09,09,13.90
2016,06,20,09,10,14.00
2016,06,20,09,11,14.00
2016,06,20,09,12,14.10
2016,06,20,09,13,14.20
2016,06,20,09,14,14.20
2016,06,20,09,15,14.30
2016,06,20,09,16,14.30
2016,06,20,09,17,14.40
2016,06,20,09,18,14.40
2016,06,20,09,19,14.50
2016,06,20,09,20,14.60
2016,06,20,09,21,14.60
2016,06,20,09,22,14.70
2016,06,20,09,23,14.70
2016,06,20,09,24,14.80
2016,06,20,09,25,14.80
2016,06,20,09,26,14.90
2016,06,20,09,27,15.00
2016,06,20,09,28,15.00
2016,06,20,09,29,15.00
2016,06,20,09,30,15.00
2016,06,20,09,31,15.00
2016,06,20,09,32,15.10
2016,06,20,09,33,15.10
2016,06,20,09,34,15.20
2016,06,20,09,35,15.30
2016,06,20,09,36,15.30
2016,06,20,09,37,15.30
2016,06,20,09,38,15.40
2016,06,20,09,39,15.40
2016,06,20,09,40,15.50
2016,06,20,09,41,15.50
2016,06,20,09,42,15.60
2016,06,20,09,43,15.60
2016,06,20,09,44,15.60
2016,06,20,09,45,15.70
2016,06,20,09,46,15.70
2016,06,20,09,47,15.70
2016,06,20,09,48,15.80
2016,06,20,09,49,15.80
2016,06,20,09,50,15.80
2016,06,20,09,51,15.80
2016,06,20,09,52,15.90
2016,06,20,09,53,15.90
2016,06,20,09,54,16.00
2016,06,20,09,55,16.00
2016,06,20,09,56,16.10
2016,06,20,09,57,16.10
2016,06,20,09,58,16.20
2016,06,20,09,59,16.20
2016,06,20,10,00,16.30
2016,06,20,10,01,16.30
2016,06,20,10,02,16.30
2016,06,20,10,03,16.30
2016,06,20,10,04,16.30
2016,06,20,10,05,16.30
2016,06,20,10,06,16.40
2016,06,20,10,07,16.40
2016,06,20,10,08,16.40
2016,06,20,10,09,16.40
2016,06,20,10,10,16.40
2016,06,20,10,11,16.50
2016,06,20,10,12,16.50
2016,06,20,10,13,16.60
2016,06,20,10,14,16.60
2016,06,20,10,15,16.60
2016,06,20,10,16,16.70
2016,06,20,10,17,16.70
2016,06,20,10,18,16.70
2016,06,20,10,19,16.70
2016,06,20,10,20,16.70
2016,06,20,10,21,16.80
2016,06,20,10,22,16.80
2016,06,20,10,23,16.80
2016,06,20,10,24,16.80
2016,06,20,10,25,16.80
2016,06,20,10,26,16.80
2016,06,20,10,27,16.80
2016,06,20,10,28,16.90
2016,06,20,10,29,16.90
2016,06,20,10,30,16.90
2016,06,20,10,31,16.90
2016,06,20,10,32,17.00
2016,06,20,10,33,17.00
2016,06,20,10,34,17.00
2016,06,20,10,35,17.10
2016,06,20,10,36,17.10
2016,06,20,10,37,17.10
2016,06,20,10,38,17.10
2016,06,20,10,39,17.10
2016,06,20,10,40,17.10
2016,06,20,10,41,17.20
2016,06,20,10,42,17.20
2016,06,20,10,43,17.20
2016,06,20,10,44,17.30
2016,06,20,10,45,17.30
2016,06,20,10,46,17.30
2016,06,20,10,47,17.40
2016,06,20,10,48,17.40
2016,06,20,10,49,17.50
2016,06,20,10,50,17.50
2016,06,20,10,51,17.60
2016,06,20,10,52,17.70
2016,06,20,10,53,17.70
2016,06,20,10,54,17.80
2016,06,20,10,55,17.90
2016,06,20,10,56,18.00
2016,06,20,10,57,18.00
2016,06,20,10,58,18.10
2016,06,20,10,59,18.20
2016,06,20,11,00,18.20
2016,06,20,11,01,18.30
2016,06,20,11,02,18.30
2016,06,20,11,03,18.40
2016,06,20,11,04,18.40
2016,06,20,11,05,18.50
2016,06,20,11,06,18.50
2016,06,20,11,07,18.60
2016,06,20,11,08,18.60
2016,06,20,11,09,18.60
2016,06,20,11,10,18.60
2016,06,20,11,11,18.60
2016,06,20,11,12,18.70
2016,06,20,11,13,18.70
2016,06,20,11,14,18.70
2016,06,20,11,15,18.70
2016,06,20,11,16,18.80
2016,06,20,11,17,18.80
2016,06,20,11,18,18.80
2016,06,20,11,19,18.80
2016,06,20,11,20,18.80
2016,06,20,11,21,18.80
2016,06,20,11,22,18.90
2016,06,20,11,23,18.90
2016,06,20,11,24,18.90
2016,06,20,11,25,18.90
2016,06,20,11,26,18.90
2016,06,20,11,27,18.90
2016,06,20,11,28,19.00
2016,06,20,11,29,19.00
2016,06,20,11,30,19.10
2016,06,20,11,31,19.10
2016,06,20,11,32,19.20
2016,06,20,11,33,19.20
2016,06,20,11,34,19.30
2016,06,20,11,35,19.30
2016,06,20,11,36,19.30
2016,06,20,11,37,19.40
2016,06,20,11,38,19.40
2016,06,20,11,39,19.40
2016,06,20,11,40,19.40
2016,06,20,11,41,19.40
2016,06,20,11,42,19.50
2016,06,20,11,43,19.50
2016,06,20,11,44,19.50
2016,06,20,11,45,19.60
2016,06,20,11,46,19.60
2016,06,20,11,47,19.60
2016,06,20,11,48,19.70
2016,06,20,11,49,19.70
2016,06,20,11,50,19.70
2016,06,20,11,51,19.70
2016,06,20,11,52,19.70
2016,06,20,11,53,19.70
2016,06,20,11,54,19.70
2016,06,20,11,55,19.70
2016,06,20,11,56,19.70
2016,06,20,11,57,19.60
2016,06,20,11,58,19.60
2016,06,20,11,59,19.60
2016,06,20,12,00,19.60
2016,06,20,12,01,19.70
2016,06,20,12,02,19.70
2016,06,20,12,03,19.70
2016,06,20,12,04,19.70
2016,06,20,12,05,19.80
2016,06,20,12,06,19.80
2016,06,20,12,07,19.90
2016,06,20,12,08,20.00
2016,06,20,12,09,20.10
2016,06,20,12,10,20.10
2016,06,20,12,11,20.20
2016,06,20,12,12,20.30
2016,06,20,12,13,20.30
2016,06,20,12,14,20.40
2016,06,20,12,15,20.40
2016,06,20,12,16,20.40
2016,06,20,12,17,20.50
2016,06,20,12,18,20.50
2016,06,20,12,19,20.60
2016,06,20,12,20,20.60
2016,06,20,12,21,20.70
2016,06,20,12,22,20.80
2016,06,20,12,23,20.90
2016,06,20,12,24,21.00
2016,06,20,12,25,21.10
2016,06,20,12,26,21.10
2016,06,20,12,27,21.20
2016,06,20,12,28,21.20
2016,06,20,12,29,21.30
2016,06,20,12,30,21.30
2016,06,20,12,31,21.40
2016,06,20,12,32,21.40
2016,06,20,12,33,21.50
2016,06,20,12,34,21.50
2016,06,20,12,35,21.50
2016,06,20,12,36,21.50
2016,06,20,12,37,21.50
2016,06,20,12,38,21.50
2016,06,20,12,39,21.40
2016,06,20,12,40,21.40
2016,06,20,12,41,21.40
2016,06,20,12,42,21.50
2016,06,20,12,43,21.50
2016,06,20,12,44,21.60
2016,06,20,12,45,21.70
2016,06,20,12,46,21.70
2016,06,20,12,47,21.70
2016,06,20,12,48,21.70
2016,06,20,12,49,21.70
2016,06,20,12,50,21.80
2016,06,20,12,51,21.80
2016,06,20,12,52,21.80
2016,06,20,12,53,21.80
2016,06,20,12,54,21.80
2016,06,20,12,55,21.80
2016,06,20,12,56,21.80
2016,06,20,12,57,21.80
2016,06,20,12,58,21.80
2016,06,20,12,59,21.80
2016,06,20,13,00,21.80
2016,06,20,13,01,21.80
2016,06,20,13,02,21.80
2016,06,20,13,03,21.80
2016,06,20,13,04,21.90
2016,06,20,13,05,21.90
2016,06,20,13,06,22.00
2016,06,20,13,07,22.00
2016,06,20,13,08,22.00
2016,06,20,13,09,22.10
2016,06,20,13,10,22.10
2016,06,20,13,11,22.10
2016,06,20,13,12,22.20
2016,06,20,13,13,22.20
2016,06,20,13,14,22.20
2016,06,20,13,15,22.20
2016,06,20,13,16,22.20
2016,06,20,13,17,22.20
2016,06,20,13,18,22.20
2016,06,20,13,19,22.20
2016,06,20,13,20,22.20
2016,06,20,13,21,22.10
2016,06,20,13,22,22.10
2016,06,20,13,23,22.00
2016,06,20,13,24,21.90
2016,06,20,13,25,21.80
2016,06,20,13,26,21.80
2016,06,20,13,27,21.80
2016,06,20,13,28,21.80
2016,06,20,13,29,21.80
2016,06,20,13,30,21.80
2016,06,20,13,31,21.80
2016,06,20,13,32,21.70
2016,06,20,13,33,21.70
2016,06,20,13,34,21.70
2016,06,20,13,35,21.70
2016,06,20,13,36,21.70
2016,06,20,13,37,21.70
2016,06,20,13,38,21.70
2016,06,20,13,39,21.80
2016,06,20,13,40,21.80
2016,06,20,13,41,21.80
2016,06,20,13,42,21.90
2016,06,20,13,43,22.00
2016,06,20,13,44,22.10
2016,06,20,13,45,22.20
2016,06,20,13,46,22.20
2016,06,20,13,47,22.30
2016,06,20,13,48,22.40
2016,06,20,13,49,22.50
2016,06,20,13,50,22.50
2016,06,20,13,51,22.60
2016,06,20,13,52,22.70
2016,06,20,13,53,22.80
2016,06,20,13,54,22.90
2016,06,20,13,55,23.00
2016,06,20,13,56,23.10
2016,06,20,13,57,23.10
2016,06,20,13,58,23.10
2016,06,20,13,59,23.10
2016,06,20,14,00,23.10
2016,06,20,14,01,23.10
2016,06,20,14,02,23.10
2016,06,20,14,03,23.10
2016,06,20,14,04,23.10
2016,06,20,14,05,23.10
2016,06,20,14,06,23.10
2016,06,20,14,07,23.10
2016,06,20,14,08,23.10
2016,06,20,14,09,23.20
2016,06,20,14,10,23.20
2016,06,20,14,11,23.20
2016,06,20,14,12,23.20
2016,06,20,14,13,23.30
2016,06,20,14,14,23.30
2016,06,20,14,15,23.30
2016,06,20,14,16,23.40
2016,06,20,14,17,23.40
2016,06,20,14,18,23.40
2016,06,20,14,19,23.40
2016,06,20,14,20,23.40
2016,06,20,14,21,23.50
2016,06,20,14,22,23.50
2016,06,20,14,23,23.50
2016,06,20,14,24,23.60
2016,06,20,14,25,23.60
2016,06,20,14,26,23.70
2016,06,20,14,27,23.80
2016,06,20,14,28,23.90
2016,06,20,14,29,23.90
2016,06,20,14,30,24.00
2016,06,20,14,31,24.10
2016,06,20,14,32,24.20
2016,06,20,14,33,24.20
2016,06,20,14,34,24.20
2016,06,20,14,35,24.20
2016,06,20,14,36,24.20
2016,06,20,14,37,24.20
2016,06,20,14,38,24.20
2016,06,20,14,39,24.10
2016,06,20,14,40,24.10
2016,06,20,14,41,24.00
2016,06,20,14,42,23.90
2016,06,20,14,43,23.90
2016,06,20,14,44,23.90
2016,06,20,14,45,23.80
2016,06,20,14,46,23.80
2016,06,20,14,47,23.70
2016,06,20,14,48,23.60
2016,06,20,14,49,23.60
2016,06,20,14,50,23.50
2016,06,20,14,51,23.50
2016,06,20,14,52,23.50
2016,06,20,14,53,23.40
2016,06,20,14,54,23.40
2016,06,20,14,55,23.40
2016,06,20,14,56,23.50
2016,06,20,14,57,23.50
2016,06,20,14,58,23.60
2016,06,20,14,59,23.60
2016,06,20,15,00,23.70
2016,06,20,15,01,23.80
2016,06,20,15,02,23.80
2016,06,20,15,03,23.90
2016,06,20,15,04,24.00
2016,06,20,15,05,24.10
2016,06,20,15,06,24.10
2016,06,20,15,07,24.10
2016,06,20,15,08,24.20
2016,06,20,15,09,24.20
2016,06,20,15,10,24.20
2016,06,20,15,11,24.10
2016,06,20,15,12,24.10
2016,06,20,15,13,24.10
2016,06,20,15,14,24.10
2016,06,20,15,15,24.10
2016,06,20,15,16,24.10
2016,06,20,15,17,24.10
2016,06,20,15,18,24.20
2016,06,20,15,19,24.20
2016,06,20,15,20,24.20
2016,06,20,15,21,24.30
2016,06,20,15,22,24.30
2016,06,20,15,23,24.30
2016,06,20,15,24,24.40
2016,06,20,15,25,24.40
2016,06,20,15,26,24.40
2016,06,20,15,27,24.40
2016,06,20,15,28,24.50
2016,06,20,15,29,24.50
2016,06,20,15,30,24.60
2016,06,20,15,31,24.70
2016,06,20,15,32,24.70
2016,06,20,15,33,24.80
2016,06,20,15,34,24.80
2016,06,20,15,35,24.90
2016,06,20,15,36,24.90
2016,06,20,15,37,24.90
2016,06,20,15,38,24.90
2016,06,20,15,39,24.90
2016,06,20,15,40,24.90
2016,06,20,15,41,24.80
2016,06,20,15,42,24.80
2016,06,20,15,43,24.70
2016,06,20,15,44,24.60
2016,06,20,15,45,24.50
2016,06,20,15,46,24.50
2016,06,20,15,47,24.40
2016,06,20,15,48,24.30
2016,06,20,15,49,24.30
2016,06,20,15,50,24.30
2016,06,20,15,51,24.30
2016,06,20,15,52,24.30
2016,06,20,15,53,24.30
2016,06,20,15,54,24.30
2016,06,20,15,55,24.30
2016,06,20,15,56,24.30
2016,06,20,15,57,24.30
2016,06,20,15,58,24.30
2016,06,20,15,59,24.40
2016,06,20,16,00,24.50
2016,06,20,16,01,24.60
2016,06,20,16,02,24.70
2016,06,20,16,03,24.80
2016,06,20,16,04,24.90
2016,06,20,16,05,24.90
2016,06,20,16,06,24.90
2016,06,20,16,07,24.90
2016,06,20,16,08,24.90
2016,06,20,16,09,24.80
2016,06,20,16,10,24.80
2016,06,20,16,11,24.70
2016,06,20,16,12,24.80
2016,06,20,16,13,24.80
2016,06,20,16,14,24.80
2016,06,20,16,15,24.90
2016,06,20,16,16,24.90
2016,06,20,16,17,24.80
2016,06,20,16,18,24.80
2016,06,20,16,19,24.80
2016,06,20,16,20,24.90
2016,06,20,16,21,24.80
2016,06,20,16,22,24.80
2016,06,20,16,23,24.70
2016,06,20,16,24,24.60
2016,06,20,16,25,24.60
2016,06,20,16,26,24.60
2016,06,20,16,27,24.60
2016,06,20,16,28,24.70
2016,06,20,16,29,24.70
2016,06,20,16,30,24.60
2016,06,20,16,31,24.50
2016,06,20,16,32,24.40
2016,06,20,16,33,24.40
2016,06,20,16,34,24.30
2016,06,20,16,35,24.30
2016,06,20,16,36,24.30
2016,06,20,16,37,24.30
2016,06,20,16,38,24.30
2016,06,20,16,39,24.30
2016,06,20,16,40,24.30
2016,06,20,16,41,24.30
2016,06,20,16,42,24.20
2016,06,20,16,43,24.20
2016,06,20,16,44,24.20
2016,06,20,16,45,24.20
2016,06,20,16,46,24.20
2016,06,20,16,47,24.20
2016,06,20,16,48,24.20
2016,06,20,16,49,24.10
2016,06,20,16,50,24.10
2016,06,20,16,51,24.00
2016,06,20,16,52,24.00
2016,06,20,16,53,23.90
2016,06,20,16,54,23.80
2016,06,20,16,55,23.70
2016,06,20,16,56,23.70
2016,06,20,16,57,23.60
2016,06,20,16,58,23.60
2016,06,20,16,59,23.60
2016,06,20,17,00,23.60
2016,06,20,17,01,23.50
2016,06,20,17,02,23.50
2016,06,20,17,03,23.50
2016,06,20,17,04,23.50
2016,06,20,17,05,23.60
2016,06,20,17,06,23.70
2016,06,20,17,07,23.70
2016,06,20,17,08,23.80
2016,06,20,17,09,23.90
2016,06,20,17,10,24.00
2016,06,20,17,11,24.20
2016,06,20,17,12,24.30
2016,06,20,17,13,24.30
2016,06,20,17,14,24.40
2016,06,20,17,15,24.40
2016,06,20,17,16,24.40
2016,06,20,17,17,24.30
2016,06,20,17,18,24.20
2016,06,20,17,19,24.10
2016,06,20,17,20,24.00
2016,06,20,17,21,23.90
2016,06,20,17,22,23.90
2016,06,20,17,23,23.80
2016,06,20,17,24,23.90
2016,06,20,17,25,23.90
2016,06,20,17,26,24.00
2016,06,20,17,27,24.10
2016,06,20,17,28,24.30
2016,06,20,17,29,24.40